Flag for India Weather past 2 weeks in Dindigul, Tamil Nadu, India

82 °F

Broken clouds.

Feels Like: 87 °F
Forecast: 70 / 79 °F
Wind: 6 mph from Northeast

Location: Tiruchchirapalli

Current Time: Nov 28, 2015 at 3:52:12 PM

Latest Report: Nov 28, 2015 at 3:30 PM

Visibility: 4 mi

Pressure: 29.86 "Hg

Humidity: 70%

Dew point: 72 °F

Location of DindigulLocation

Historic Weather in Dindigul — Graph


Dindigul temperature yesterday

Maximum temperature yesterday: 84 °F (at 3:30 PM)
Minimum temperature yesterday: 77 °F (at 12:00 AM)
Average temperature yesterday: 80 °F

Past Weeks' High & Low Weather Summary

High88 °F (Nov 17, 2:30 PM)100% (Nov 14, 9:10 PM)29.95 "Hg (Nov 14, 9:10 PM)
Low70 °F (Nov 15, 5:30 AM)52% (Nov 25, 2:00 PM)29.68 "Hg (Nov 16, 2:00 PM)
Average79 °F84%29.83 "Hg
* Reported Nov 13 2:40 PM — Nov 28 2:30 PM, Dindigul, Weather by CustomWeather, © 2015

Note: Actual official high and low records may vary slightly from our data, if they occured in-between our weather recording intervals... More about our weather records


Dindigul weather history for previous 24 hours

Time TempWeatherWind HumidityBarometerVisibility
2:30 PM
Sat, Nov 28
82 °FPartly sunny.8 mph70%29.86 "Hg4 mi
2:00 PM82 °FScattered clouds.8 mph70%29.86 "Hg4 mi
1:30 PM82 °FScattered clouds.8 mph70%29.89 "Hg3 mi
1:00 PM82 °FHaze.8 mph70%29.89 "Hg3 mi
12:30 PM82 °FHaze.9 mph70%29.89 "Hg3 mi
12:00 PM82 °FHaze.9 mph70%29.92 "Hg2 mi
11:30 AM81 °FHaze.12 mph74%29.92 "Hg2 mi
11:00 AM81 °FFog.12 mph74%29.92 "Hg2 mi
10:30 AM79 °FFog.12 mph79%29.92 "Hg2 mi
10:00 AM79 °FFog.12 mph79%29.95 "Hg2 mi
9:30 AM79 °FFog.10 mph79%29.95 "Hg2 mi
9:00 AM79 °FFog.10 mph79%29.92 "Hg2 mi
8:30 AM77 °FFog.8 mph83%29.92 "Hg2 mi
8:00 AM77 °FFog.8 mph83%29.92 "Hg2 mi
7:30 AM75 °FFog.6 mph94%29.89 "Hg2 mi
6:00 AM75 °FFog.6 mph89%29.86 "Hg1 mi
5:30 AM75 °FFog.6 mph89%29.86 "Hg1 mi
4:30 AM75 °FFog.6 mph94%29.83 "Hg2 mi
3:00 AM77 °FFog.6 mph89%29.83 "Hg2 mi
2:30 AM77 °FFog.7 mph89%29.86 "Hg2 mi
2:00 AM77 °FFog.5 mph94%29.86 "Hg2 mi
12:30 AM77 °FFog.3 mph94%29.86 "Hg2 mi
12:00 AM77 °FFog.3 mph94%29.89 "Hg2 mi
11:30 PM
Fri, Nov 27
77 °FFog.2 mph94%29.89 "Hg2 mi
11:00 PM77 °FFog.No wind89%29.89 "Hg2 mi
10:30 PM77 °FFog.3 mph89%29.89 "Hg2 mi
10:00 PMN/AFog.3 mphN/A29.89 "Hg2 mi
9:30 PM79 °FFog.2 mph79%29.89 "Hg2 mi
9:00 PM79 °FFog.2 mph79%29.89 "Hg2 mi
8:30 PM79 °FFog.2 mph79%29.86 "Hg2 mi
8:00 PM81 °FFog.2 mph79%29.86 "Hg2 mi
7:30 PM81 °FFog.2 mph79%29.83 "Hg2 mi
7:00 PM81 °FFog.No wind79%29.83 "Hg2 mi
6:00 PM81 °FFog.2 mph79%29.80 "Hg2 mi
5:30 PM82 °FScattered clouds.3 mph74%29.77 "Hg2 mi
5:00 PM82 °FScattered clouds.2 mph74%29.77 "Hg2 mi
4:30 PM82 °FScattered clouds.2 mph74%29.77 "Hg2 mi
4:00 PM84 °FScattered clouds.2 mph70%29.77 "Hg2 mi
3:30 PM84 °FScattered clouds.2 mph70%29.77 "Hg2 mi
3:00 PM82 °FBroken clouds.3 mph74%29.80 "Hg2 mi
Weather by CustomWeather, © 2015

See weather overviewHow to use our weather pages